Cloud_Cover
100 100 100 100 100 66 15 32 30 24 0 0 0 0 0 0 0 1 5 0 1 4 100 98 4 5 5 56 100 100 54 100 78 57 0 64 7 0 0 0 3 0 2 0 0
100 100 82 55 97 23 25 29 24 21 0 0 0 0 0 2 0 5 51 0 5 2 100 98 6 2 53 100 100 100 100 71 12 80 5 100 77 48 29 56 34 3 3 4 4
100 94 21 86 64 48 30 30 15 11 0 0 0 0 0 10 0 0 86 76 2 40 41 94 19 78 89 94 100 35 5 49 96 7 100 12 56 100 62 100 72 72 3 7 45
100 100 77 100 86 32 36 25 22 7 0 0 0 0 0 0 10 3 55 40 0 5 5 5 21 30 100 33 98 7 12 100 96 88 40 97 41 100 8 67 0 24 95 26 0
100 100 96 100 32 36 40 20 15 0 0 0 0 0 0 2 2 1 62 2 0 5 24 19 34 74 100 15 85 100 100 16 51 100 95 100 89 96 17 4 0 0 4 82 2
100 100 100 84 35 36 33 3 0 1 0 0 0 38 3 0 4 0 31 54 5 5 5 5 5 4 5 30 100 12 90 95 27 100 100 100 100 76 52 34 0 1 5 52 11
100 95 69 60 31 29 13 0 0 0 0 0 0 1 0 3 3 5 82 12 5 1 31 66 5 3 16 52 7 76 100 100 100 99 100 100 100 87 85 61 0 0 0 0 0
100 66 19 27 25 7 0 0 0 0 0 0 0 4 0 5 5 54 12 5 5 42 5 5 5 5 13 8 12 59 100 100 48 1 4 9 100 100 68 58 9 0 0 3 0
100 67 1 0 0 0 0 0 0 0 5 0 1 2 0 5 22 100 92 5 5 5 5 0 5 57 29 81 90 71 94 74 88 68 100 28 100 3 26 62 28 1 0 0 0
99 0 0 0 0 0 0 0 1 5 5 0 3 2 4 9 100 91 95 47 5 5 26 71 72 100 84 33 80 99 43 48 86 17 92 99 19 12 0 21 12 6 0 0 0
90 0 0 0 0 0 5 0 5 5 2 0 5 5 5 92 100 68 72 25 5 97 100 100 100 100 100 84 49 100 100 70 5 22 67 8 43 2 0 1 0 0 0 0 0
100 0 0 0 0 0 10 1 5 0 2 4 5 1 16 100 100 100 5 19 93 100 100 100 100 100 100 16 84 98 40 54 19 13 93 39 5 95 1 1 1 3 0 0 0
82 0 0 0 2 36 0 72 5 2 5 5 5 0 71 100 100 100 74 5 34 100 100 100 100 100 100 96 9 73 100 100 51 2 54 19 23 4 1 2 0 0 0 0 0
94 0 0 0 16 0 5 49 5 5 15 22 5 1 91 100 100 100 100 45 100 100 100 100 100 100 40 94 100 36 53 24 90 63 21 76 75 10 43 80 11 3 4 0 0
100 17 0 78 0 0 25 62 46 5 51 9 5 5 100 100 100 100 63 96 4 96 98 100 100 97 100 94 4 9 5 32 67 98 100 96 100 9 15 24 18 100 71 2 0
100 85 5 0 2 60 100 100 41 18 47 79 5 6 81 100 100 100 100 53 23 85 39 39 79 76 98 56 5 2 76 84 97 62 12 3 7 11 0 2 54 37 5 5 6
100 34 27 0 0 5 100 34 29 5 96 89 10 79 82 100 100 100 100 92 13 41 3 98 90 100 100 100 55 63 65 65 100 92 94 40 34 5 5 0 64 3 98 68 98
100 34 0 0 4 96 67 2 88 50 86 99 100 45 100 100 100 100 100 34 99 92 100 100 100 100 100 13 4 20 95 96 40 99 58 6 92 76 4 0 3 6 18 33 54
33 0 0 0 14 99 63 44 99 99 100 96 82 100 97 100 100 100 100 100 100 59 100 100 100 94 63 4 0 7 71 13 2 86 100 96 96 19 5 92 32 98 1 4 100
0 0 0 0 76 100 72 61 37 100 72 92 100 100 100 100 100 100 100 100 97 100 73 97 46 72 48 4 1 0 1 2 5 44 64 100 83 27 38 97 6 0 0 0 0
4 0 0 3 77 100 100 83 93 92 81 88 79 46 100 100 100 100 100 100 100 100 58 97 100 88 48 8 26 5 2 2 39 3 28 89 99 98 42 4 0 0 0 0 0
5 0 0 4 86 100 100 5 58 75 100 88 48 100 100 100 100 100 100 100 100 100 100 73 100 31 70 16 0 0 0 0 0 0 61 24 35 98 15 5 2 0 0 0 0
34 5 0 2 50 84 83 27 100 9 100 70 24 75 78 100 100 100 100 100 100 42 20 13 3 98 81 88 24 58 3 0 1 2 34 29 88 100 100 96 40 0 0 0 0
93 5 1 0 14 57 85 100 98 74 92 100 53 25 59 97 100 100 95 96 18 0 0 0 0 6 100 86 100 64 40 4 0 8 22 26 34 52 34 38 0 0 0 0 0
100 46 69 4 1 71 100 100 98 99 71 97 97 23 2 3 92 10 60 2 0 0 0 0 0 0 1 8 58 28 2 1 81 55 5 2 6 0 0 0 0 0 0 0 0
34 26 34 53 5 19 9 99 100 100 100 100 92 42 5 6 44 100 10 8 5 0 0 4 0 0 0 1 5 5 1 2 5 5 24 93 77 0 0 0 0 0 0 0 0
0 100 100 92 6 22 25 41 94 100 98 99 94 45 74 92 23 100 100 100 95 85 90 10 4 0 1 0 0 2 8 5 3 4 1 3 0 0 0 0 0 0 0 0 0